Skip Page Navigation
NASA JPL Caltech
NASA Logo - Jet Propulsion Laboratory + View the NASA Portal
+ Near-Earth Object (NEO) Program
Search JPL
JPL Home Earth Solar System Stars & Galaxies Technology
JPL Solar System Dynamics
BODIES ORBITS EPHEMERIDES TOOLS PHYSICAL DATA DISCOVERY FAQ SITE MAP
JPL Small-Body Database Browser
Search: [ help ]  
5193 Tanakawataru (1992 ET)
Classification: Main-belt Asteroid          SPK-ID: 2005193
Ephemeris | Orbit Diagram | Orbital Elements | Physical Parameters | Discovery Circumstances | Close-Approach Data ]

[ show orbit diagram ]
Orbital Elements at Epoch 2457000.5 (2014-Dec-09.0) TDB
Reference: JPL 15 (heliocentric ecliptic J2000)
 Element Value Uncertainty (1-sigma)   Units 
e .1587606641562578 4.9173e-08  
a 3.178865359330622 2.3178e-08 AU
q 2.674186583619972 1.5452e-07 AU
i 2.709600411222797 5.5886e-06 deg
node 90.97037060070546 0.00012976 deg
peri 17.78660099770508 0.0001316 deg
M 56.14859697425307 2.0006e-05 deg
tp 2456677.618594172238
(2014-Jan-20.11859417)
0.00011429 JED
period 2070.172940408375
5.67
2.2642e-05
6.199e-08
d
yr
n .1738985149371067 1.9019e-09 deg/d
Q 3.683544135041273 2.6858e-08 AU
  Orbit Determination Parameters
   # obs. used (total)      1290  
   data-arc span      38526 days (105.48 yr)  
   first obs. used      1909-10-05  
   last obs. used      2015-03-29  
   planetary ephem.      DE431  
   SB-pert. ephem.      SB431-BIG16  
   condition code      0  
   fit RMS      .48045  
   data source      ORB  
   producer      Otto Matic  
   solution date      2015-Apr-07 16:20:54  

Additional Information
 Earth MOID = 1.69102 AU 
 T_jup = 3.179 
[ show covariance matrix ]

Ephemeris | Orbit Diagram | Orbital Elements | Physical Parameters | Discovery Circumstances | Close-Approach Data ]

Physical Parameter Table
Parameter Symbol Value Units Sigma Reference Notes
absolute magnitude H 11.9 mag n/a MPO296177  

5193 Tanakawataru           Discovered 1992 Mar. 7 by S. Ueda and H. Kaneda at Kushiro.
Wataru Tanaka (b. 1939) was a professor at the National Astronomical Observatory of Japan who specialized in spectroscopic studies of planets and late-type stars.
NOTE: some special characters may not display properly (any characters within {} are an attempt to place the proper accent above a character)
Reference: 20070601/MPCPages.arcLast Updated: 2007-06-06

[ show close-approach data ]
Alternate Designations
 1992 ET = 1952 DQ = 1952 FG = 1973 YY1 = 1975 FQ = 1979 YO8 = 1984 UQ4 = 1989 RA5 = 1990 VA14 = 1990 WF13 = A909 TD 
Ephemeris | Orbit Diagram | Orbital Elements | Physical Parameters | Discovery Circumstances | Close-Approach Data ]
ABOUT SSD CREDITS/AWARDS PRIVACY/COPYRIGHT GLOSSARY LINKS
FirstGov 2015-Apr-21 11:40 UT
(server date/time)  
NASA Home Page
Site Manager:   Ryan S. Park
Webmaster  Alan B. Chamberlin